www.pogodaiklimat.ru

Погода и климат >> Архив погоды >> Мексика >> Felipe Carrillo Puerto


ПОГОДА в Felipe Carrillo Puerto

  • Прогноз погоды в Felipe Carrillo Puerto
  • Монитор погоды в Felipe Carrillo Puerto
  • Климат города

АРХИВ ПОГОДЫ в Felipe Carrillo Puerto

Время (UTC), дата Ветер
(напр.,м/с)
 
Видим.   Явления Облачность Т
(С)
Тd
(С)
f
(%)
Тe
(С)
Тes
(С)
Комфортность P
(гПа)
Po
(гПа)
Тmin
(С)
Tmax
(С)
R
(мм)
R24
(мм)
S
(см)
00 14.11 ЮВ 1 5000 м {дождь} 4/4 200 м
[Cu med, cong]
+25.2 +24.3 95 +35 +35 очень
душно
1013.0 1011.8 45
12 14.11 штиль 0 10 км 1/1 200 м
[Cu med, cong]
+22.4 +22.1 98 +30 +30 очень
душно
1015.3 1014.1 +20.8 +32.7
15 14.11 В 1 10 км 3/1 240 м
[Cu med, cong Ci fib]
+26.8 +24.8 89 +38 +45 очень
душно
1016.9 1015.7
18 14.11 ЮВ 2 10 км 5/5 240 м
[Cu med, cong]
+27.8 +24.6 83 +39 +46 очень
душно
1016.0 1014.8 +20.8 +31.8
21 14.11 ЮВ 1 10 км слабая морось 4/4 240 м
[Cu med, cong]
+24.8 +23.3 91 +33 +37 очень
душно
1014.7 1013.5 0.7
00 15.11 В 1 5000 м {морось} 5/5 200 м
[Cu med, cong]
+22.7 +21.9 95 +30 +30 очень
душно
1016.2 1015.1 0.7
12 15.11 С 1 10 км 5/5 200 м
[Cu med, cong]
+20.0 +19.0 94 +24 +24 комфорт 1018.3 1017.1 +18.4 +31.8
15 15.11 С 3 10 км 6/4 240 м
[Cu med, cong As trans]
+22.4 +19.6 84 +28 +31 душно 1020.0 1018.8
18 15.11 СВ 3 10 км 9/5 240 м
[Cu med, cong As trans]
+23.0 +19.6 81 +30 +32 очень
душно
1019.8 1018.7 +18.4 +24.4
21 15.11 С 1 10 км 8/5 240 м
[Cu med, cong As trans]
+25.0 +18.2 66 +29 +31 душно 1016.6 1015.4
00 16.11 С 1 5000 м 5/5 200 м
[Cu med, cong]
+22.0 +19.8 87 +28 +28 душно 1017.9 1016.7 +18.4 +25.2
12 16.11 С 1 10 км 3/1 200 м
[Cu med, cong Ci fib]
+16.6 +15.2 91 +17 +17 1019.1 1017.9 +14.9 +25.2
15 16.11 С 3 10 км 3/1 240 м
[Cu med, cong Cc]
+22.4 +16.8 71 +27 +31 душно 1019.8 1018.6
18 16.11 С 3 10 км 1/1 240 м
[Cu med, cong]
+26.2 +18.3 62 +31 +41 очень
душно
1018.5 1017.3 +14.9 +26.9
15 17.11 С 1 10 км 6/4 240 м
[Cu med, cong Ac und]
+21.4 +18.2 82 +26 +29 душно 1019.8 1018.6
18 17.11 В 2 10 км 4/4 240 м
[Cu med, cong]
+27.8 +20.2 63 +34 +42 очень
душно
1018.1 1016.9 +15.6 +28.4
21 17.11 СВ 1 10 км 4/4 240 м
[Cu med, cong]
+28.8 +20.3 60 +35 +39 очень
душно
1015.0 1013.9
00 18.11 С 1 5000 м 3/3 200 м
[Cu med, cong]
+25.8 +20.9 74 +32 +32 очень
душно
1015.5 1014.3 +15.6 +28.4
12 18.11 штиль 0 10 км 1/1 200 м
[Cu med, cong]
+18.4 +17.4 94 +19 +19 1018.2 1017.0 +16.9 +29.4
15 18.11 СВ 1 10 км 1/1 240 м
[Cu med, cong]
+24.6 +19.6 74 +30 +36 очень
душно
1018.7 1017.5
18 18.11 С 2 10 км 1/1 240 м
[Cu med, cong]
+29.6 +22.2 64 +38 +50 очень
душно
1017.2 1016.1 +16.9 +30.2
12 19.11 штиль 0 10 км 1/1 200 м
[Cu med, cong]
+20.3 +19.8 97 +24 +24 комфорт 1014.1 1013.1 +16.5 +30.2
15 19.11 В 1 10 км 3/3 240 м
[Cu med, cong]
+26.8 +22.7 78 +35 +40 очень
душно
1016.6 1015.5
18 19.11 В 1 10 км 3/3 240 м
[Cu med, cong]
+32.4 +25.4 67 +47 +58 опасность
перегрева
1015.5 1014.4 +16.5 +34.2
12 20.11 В 1 10 км 3/3 200 м
[Cu med, cong]
+23.5 +22.5 94 +31 +31 очень
душно
1015.3 1014.2 +16.4 +34.2
15 20.11 В 1 10 км 3/3 240 м
[Cu med, cong]
+28.2 +24.8 82 +40 +45 очень
душно
1016.6 1015.5
18 20.11 В 1 10 км сильный дождь 4/4 200 м
[Cu med, cong]
+26.8 +25.7 94 +40 +49 очень
душно
1016.3 1015.2 6

 

Местоположение метеостанции Felipe Carrillo Puerto (Мексика): широта 19.70 долгота -87.90 высота над уровнем моря 12 м.

В архиве по умолчанию представлена погода в Felipe Carrillo Puerto за последнюю неделю. Архивные данные за месяц целиком и за предыдущие месяцы, начиная с января 2011 года, Вы можете получить, выбрав интересующий диапазон дат из раскрывающегося списка и нажав кнопку "Ввод!".


*Определитесь, кто Вы:
робот инопланетянин человек

Внимание! Время в таблицах - всемирное. Для получения местного времени необходимо прибавить поправку, которая в Felipe Carrillo Puerto равна -6 ч.

Смотрите также архив погоды в соседних городах и на ближайших метеорологических станциях:

Погода в Valladolid (Мексика) (113 км)
Погода в Chetumal (Мексика) (142 км)
Погода в Merida (Мексика) (231 км)
Погода в Merida 2 (Мексика) (237 км)
Погода в Belize (Белиз) (245 км)
Погода в Progreso (Мексика) (255 км)
Погода в Campeche (Мексика) (278 км)
Погода в Flores (Гватемала) (373 км)
Погода в Cabo San Antonio (Куба) (390 км)
Погода в Roatan (Гондурас) (404 км)

Пояснения к столбцам:

Ветер - указаны скорость ветра в м/с - средняя за 10 мин, порывы в срок и между сроками (в фигурных скобках) и направление, откуда дует ветер: С - северный, СВ - северо-восточный, В - восточный, ЮВ - юго-восточный, Ю - южный, ЮЗ - юго-западный, З - западный, СЗ - северо-западный.
Видимость - горизонтальная дальность видимости в метрах или километрах. При видимости от 1 до 10 км при отсутствии осадков обычно наблюдается дымка, при ухудшении видимости до 1 км и менее - туман. В сухую погоду видимость может ухудшаться дымом, пылью или мглою.
Явления - указаны атмосферные явления, наблюдавшиеся в срок или в последний час перед сроком; фигурными скобками обозначены явления, наблюдавшиеся между сроками (за 1-3 часа до срока); квадратными скобками обозначены град или гололедные отложения с указанием их диаметра в мм.
Облачность - указаны через наклонную черту общая и нижняя облачность в баллах и высота нижней границы облаков в метрах; квадратными скобками обозначены формы облаков: Ci - перистые, Cs - перисто-слоистые, Cc - перисто-кучевые, Ac - высококучевые, As - высокослоистые, Sc - слоисто-кучевые, Ns - слоисто-дождевые, Cu - кучевые, Cb - кучево-дождевые. Подробнее классификацию облаков см. в Атласе облаков (PDF).
T - Температура воздуха - температура, измеренная на высоте 2 м над землей.
Td - Температура точки росы - температура, при понижении до которой содержащийся в воздухе водяной пар достигнет насыщения.
f - Относительная влажность воздуха - влажноcть воздуха, измеренная на высоте 2 м над землей.
Te - Эффективная температура - температура, которую ощущает одетый по сезону человек в тени. Характеристика душности погоды. При расчете учитывается влияние влажности воздуха и скорости ветра на теплоощущения человека.
Tes - Эффективная температура на солнце - температура, которую ощущает человек, с поправкой на солнечный нагрев. Характеристика знойности погоды. Зависит от высоты солнца над горизонтом, облачности и скорости ветра. Ночью, в пасмурную погоду, а также при ветре 12 м/с и более поправка равна нулю.
P - Атмосферное давление - приведенное к уровню моря атмосферное давление.
Po - Атмосферное давление - измеренное на уровне метеостанции атмосферное давление.
Tmin - Минимальная температура - минимум температуры воздуха на высоте 2 м над землей.
Tmax - Максимальная температура - максимум температуры воздуха на высоте 2 м над землей.
R - Количество осадков - Количество выпавших осадков за период времени, мм. При наведении курсора мыши на число - период времени, за который выпало указанное количество осадков.
R24 - Количество осадков - Количество выпавших осадков за 24 часа, мм.
S - Снежный покров - Высота снежного покрова, см. При наведении курсора мыши на число - состояние снежного покрова и степень покрытия местности в баллах.